This is the latest recevied weather packets stored in our database for station/object KK7HEZ. If no packets are shown the sender has not sent any weather packets the latest 1 day(s).
| Time | Temp. | Humidity | Pressure | Rain* | Wind** | Luminosity | Snow |
|---|---|---|---|---|---|---|---|
| 1778040903 | 13.89° C | 90% | 1016.2 hPa | 0 mm | 0 m/s | 0 W/m² | - |
| 1778040599 | 13.89° C | 90% | 1016.3 hPa | 0 mm | 0 m/s | 0 W/m² | - |
| 1778040297 | 13.89° C | 90% | 1016.4 hPa | 0 mm | 0 m/s | 0 W/m² | - |
| 1778039992 | 13.89° C | 90% | 1016.4 hPa | 0 mm | 0 m/s | 0 W/m² | - |
| 1778039690 | 13.89° C | 89% | 1016.2 hPa | 0 mm | 0 m/s | 0 W/m² | - |
| 1778039386 | 13.89° C | 89% | 1016.2 hPa | 0 mm | 0 m/s | 0 W/m² | - |
| 1778039084 | 14.44° C | 89% | 1016.1 hPa | 0 mm | 0 m/s | 0 W/m² | - |
| 1778038780 | 14.44° C | 88% | 1016.4 hPa | 0 mm | 0 m/s | 0 W/m² | - |
| 1778038478 | 15° C | 88% | 1016.2 hPa | 0 mm | 0 m/s | 0 W/m² | - |
| 1778038174 | 15° C | 87% | 1016.1 hPa | 0 mm | 0 m/s | 0 W/m² | - |
| 1778037872 | 15° C | 86% | 1016.1 hPa | 0 mm | 0 m/s | 0 W/m² | - |
| 1778037568 | 15.56° C | 84% | 1015.9 hPa | 0 mm | 0 m/s | 0 W/m² | - |
| 1778037265 | 16.67° C | 83% | 1015.8 hPa | 0 mm | 0 m/s | 1 W/m² | - |
| 1778036963 | 16.67° C | 82% | 1016.1 hPa | 0 mm | 0 m/s | 3 W/m² | - |
| 1778036661 | 17.22° C | 81% | 1016.2 hPa | 0 mm | 0 m/s | 5 W/m² | - |
| 1778036357 | 17.22° C | 80% | 1015.9 hPa | 0 mm | 0 m/s | 9 W/m² | - |
| 1778036055 | 17.78° C | 78% | 1015.8 hPa | 0 mm | 0 m/s | 12 W/m² | - |
| 1778035751 | 18.33° C | 75% | 1016 hPa | 0 mm | 0 m/s | 15 W/m² | - |
| 1778035448 | 18.33° C | 76% | 1015.6 hPa | 0 mm | 0 m/s | 19 W/m² | - |
| 1778035144 | 18.33° C | 74% | 1015.7 hPa | 0 mm | 0 m/s | 23 W/m² | - |
| 1778034841 | 18.89° C | 75% | 1015.6 hPa | 0 mm | 0 m/s | 26 W/m² | - |
| 1778034538 | 18.89° C | 74% | 1015.6 hPa | 0 mm | 0 m/s | 31 W/m² | - |
| 1778034235 | 19.44° C | 73% | 1015.8 hPa | 0 mm | 0 m/s | 37 W/m² | - |
| 1778033933 | 20° C | 70% | 1015.7 hPa | 0 mm | 0 m/s | 24 W/m² | - |
| 1778033630 | 20° C | 68% | 1015.5 hPa | 0 mm | 0.45 m/s, 195° | 27 W/m² | - |
* Rain latest hour (hover to see other rain measurements)
** Current wind speed in m/s (hover to see current wind gust speed)